Location: Bodham
(52.9000°N, 1.1667°E)
Time: 15:10:22
(UTC+00:00)

Cosmos 2112 Rocket - Pass Details

Date: 19 October 2025
Orbit: 753 x 782 km, 74.0° (Epoch: 13 November)

Event Time Altitude Azimuth Distance (km) Brightness Sun altitude
Rises 02:19:25 0° 335° (NNW) 3,255 7.4 -36.5°
Reaches altitude 10° 02:23:35 10° 7° (N) 2,317 6.9 -36.0°
Maximum altitude 02:25:30 12° 28° (NNE) 2,182 7.0 -35.8°
Drops below altitude 10° 02:27:25 10° 50° (NE) 2,307 7.2 -35.6°
Sets 02:31:31 0° 82° (E) 3,222 8.0 -35.1°
